Location: Vancouver
(49.2500°N, 123.1330°W)
Time: 20:21:35
(UTC-07:00)

Vanguard 2 Rocket - Visible Passes

Search period start: 30 July 2014 00:00
Search period end: 09 August 2014 00:00
Orbit: 554 x 3336 km, 32.9° (Epoch: 30 July)

Date Brightness Start Highest point End Pass type
(mag) Time Alt. Az. Time Alt. Az. Time Alt. Az.
30 Jul 10.0 02:18:28 10° SE 02:19:59 10° SE 02:21:35 10° ESE visible
30 Jul 9.7 04:21:50 10° SSW 04:32:03 31° SSE 04:46:45 10° E visible
31 Jul 9.6 03:26:41 15° S 03:33:23 24° SE 03:45:01 10° E visible
01 Aug 9.7 02:31:32 14° SSE 02:35:10 16° SE 02:42:28 10° ESE visible
01 Aug 9.6 04:37:26 11° SW 04:47:45 36° SSE 05:03:12 10° E visible
02 Aug 9.3 03:42:17 17° SSW 03:48:56 29° SSE 04:01:50 10° E visible
03 Aug 9.3 02:47:09 18° SSE 02:50:34 21° SE 03:00:07 10° E visible
03 Aug 9.5 04:53:15 10° SW 05:03:38 39° SSE 05:19:23 10° ESE visible
04 Aug 9.6 01:52:01 13° SE 01:52:36 13° SE 01:57:28 10° ESE visible
04 Aug 9.2 03:57:55 18° SSW 04:04:42 33° SSE 04:18:16 10° ESE visible
05 Aug 9.0 03:02:48 22° S 03:06:12 26° SSE 03:16:58 10° ESE visible
05 Aug 9.5 05:09:28 10° WSW 05:19:40 40° S 05:35:21 10° ESE visible
06 Aug 9.3 02:07:42 18° SE 02:08:06 18° SE 02:15:23 10° ESE visible
06 Aug 9.1 04:13:36 17° SW 04:20:40 36° SSE 04:34:26 10° ESE visible
07 Aug 8.8 03:18:32 24° S 03:22:04 30° SSE 03:33:25 10° ESE visible
08 Aug 9.0 02:23:29 23° SSE 02:23:50 23° SSE 02:32:19 10° ESE visible
08 Aug 9.1 04:29:23 15° SW 04:36:47 36° S 04:50:21 10° ESE visible
